Alexandria Esle, LA

3:22 AM CDT on May 23, 2018 (GMT -0500)
Alexandria Esler Regional

Weather History for KESF - June, 2014

Change the Weather History Date:

Tuesday, June 17, 2014

  Actual Average Record
Temperature  
Mean Temperature 81 °F -  
Max Temperature 91 °F 90 °F 100 °F (2011)
Min Temperature 71 °F 69 °F 56 °F (1969)
Cooling Degree Days 16    
Growing Degree Days 31 (Base 50)    
Moisture  
Dew Point 72 °F    
Average Humidity 78    
Maximum Humidity 93    
Minimum Humidity 52    
Precipitation  
Precipitation 0.01 in - - ()
Sea Level Pressure  
Sea Level Pressure 30.08 in    
Wind  
Wind Speed 2 mph (South)    
Max Wind Speed 8 mph    
Max Gust Speed -    
Visibility 10 miles    
Events      
Averages and records for this station are not official NWS values.
T = Trace of Precipitation, MM = Missing Value Source: NWS Daily Summary

Daily Weather History Graph

Daily Weather History Graph

Search for Another Location

Airport or City:

Astronomy

Jun. 17, 2014 Rise Set
Actual Time 6:04 AM CDT 8:15 PM CDT
Civil Twilight 5:36 AM CDT 8:43 PM CDT
Nautical Twilight 5:02 AM CDT 9:18 PM CDT
Astronomical Twilight 4:25 AM CDT 9:54 PM CDT
Moon No Moon Rise 11:02 AM CDT (6/17)
Length of Visible Light 15h 07m
Length of Day
14h 11m
Waning Gibbous, 73% of the Moon is Illuminated
Jun 17
Waning Gibbous
Jun 19
Last Quarter
Jun 27
New
Jul 5
First Quarter
Jul 12
Full

Hourly Weather History & Observations

Time (CDT) Temp. Heat Index Dew Point Humidity Pressure Visibility Wind Dir Wind Speed Gust Speed Precip Events Conditions
12:53 AM 73.9 °F - 70.0 °F 87% 30.08 in 10.0 mi Calm Calm - N/A   Clear
1:53 AM 73.0 °F - 70.0 °F 90% 30.07 in 10.0 mi Calm Calm - N/A   Clear
2:53 AM 73.9 °F - 70.0 °F 87% 30.07 in 10.0 mi Calm Calm - N/A   Clear
3:53 AM 72.0 °F - 69.1 °F 91% 30.07 in 10.0 mi Calm Calm - N/A   Clear
4:53 AM 71.1 °F - 68.0 °F 90% 30.08 in 9.0 mi Calm Calm - N/A   Clear
5:37 AM 71.1 °F - 68.0 °F 90% 30.08 in 6.0 mi Calm Calm - N/A   Mostly Cloudy
5:48 AM 71.6 °F - 68.0 °F 88% 30.08 in 9.0 mi Calm Calm - N/A   Overcast
5:53 AM 71.1 °F - 68.0 °F 90% 30.08 in 10.0 mi Calm Calm - N/A   Overcast
6:12 AM 71.1 °F - 68.0 °F 90% 30.08 in 7.0 mi Calm Calm - N/A   Mostly Cloudy
6:21 AM 71.1 °F - 68.0 °F 90% 30.09 in 7.0 mi SE 3.5 mph - N/A   Mostly Cloudy
6:40 AM 72.0 °F - 70.0 °F 93% 30.09 in 7.0 mi Calm Calm - N/A   Overcast
6:53 AM 73.9 °F - 71.1 °F 91% 30.09 in 7.0 mi SE 3.5 mph - N/A   Overcast
7:53 AM 77.0 °F - 73.9 °F 90% 30.10 in 10.0 mi South 4.6 mph - N/A   Mostly Cloudy
8:16 AM 79.0 °F - 75.0 °F 88% 30.11 in 10.0 mi South 5.8 mph - N/A   Scattered Clouds
8:53 AM 81.0 °F 86.7 °F 75.0 °F 82% 30.12 in 10.0 mi Variable 5.8 mph - N/A   Scattered Clouds
9:08 AM 82.9 °F 90.8 °F 75.9 °F 79% 30.12 in 10.0 mi South 4.6 mph - N/A   Mostly Cloudy
9:18 AM 82.0 °F 88.6 °F 75.0 °F 79% 30.12 in 10.0 mi SSW 6.9 mph - N/A   Scattered Clouds
9:53 AM 84.0 °F 91.2 °F 73.9 °F 72% 30.12 in 10.0 mi SSW 8.1 mph - N/A   Partly Cloudy
10:53 AM 87.1 °F 95.4 °F 73.9 °F 65% 30.12 in 10.0 mi SSE 6.9 mph - N/A   Scattered Clouds
11:25 AM 87.1 °F 95.4 °F 73.9 °F 65% 30.12 in 10.0 mi Variable 6.9 mph - N/A   Mostly Cloudy
11:40 AM 88.0 °F 96.5 °F 73.9 °F 63% 30.12 in 10.0 mi Variable 5.8 mph - N/A   Mostly Cloudy
11:53 AM 89.1 °F 97.0 °F 73.0 °F 59% 30.12 in 10.0 mi SSW 8.1 mph - N/A   Scattered Clouds
12:53 PM 91.0 °F 98.2 °F 72.0 °F 53% 30.10 in 10.0 mi Variable 6.9 mph - N/A   Partly Cloudy
1:53 PM 89.6 °F 98.2 °F 73.4 °F 59% 30.08 in 10.0 mi South 8.1 mph - N/A   Mostly Cloudy
2:53 PM 91.9 °F 100.7 °F 73.0 °F 54% 30.05 in 10.0 mi Variable 5.8 mph - 0.00 in   Clear
3:53 PM 88.0 °F 92.1 °F 69.1 °F 53% 30.04 in 10.0 mi South 5.8 mph - N/A   Scattered Clouds
4:53 PM 91.0 °F 97.6 °F 71.1 °F 52% 30.03 in 10.0 mi SSW 6.9 mph - N/A   Partly Cloudy
5:53 PM 89.1 °F 96.0 °F 72.0 °F 57% 30.02 in 10.0 mi SSE 6.9 mph - N/A   Scattered Clouds
6:53 PM 82.9 °F 90.8 °F 75.9 °F 79% 30.02 in 10.0 mi Calm Calm - 0.01 in   Partly Cloudy
7:53 PM 81.0 °F 87.3 °F 75.9 °F 85% 30.03 in 10.0 mi Calm Calm - N/A   Clear
8:53 PM 79.0 °F - 75.0 °F 88% 30.04 in 10.0 mi Calm Calm - N/A   Clear
9:53 PM 80.1 °F 83.8 °F 72.0 °F 76% 30.05 in 10.0 mi SSE 5.8 mph - N/A   Clear
10:53 PM 78.1 °F - 72.0 °F 81% 30.06 in 10.0 mi SE 4.6 mph - N/A   Clear
11:53 PM 78.1 °F - 72.0 °F 81% 30.05 in 10.0 mi SSE 3.5 mph - N/A   Clear